Location: Lake Lucerne
(45.5315°N, 88.8489°W)
Time: 21:35:30
(UTC-06:00)

N. Korean satellite - Visible Passes

Search period start: 15 December 2017 00:00
Search period end: 25 December 2017 00:00
Orbit: 461 x 513 km, 97.2° (Epoch: 15 December)

Date Brightness Start Highest point End Pass type
(mag) Time Alt. Az. Time Alt. Az. Time Alt. Az.
15 Dec 9.4 05:57:31 10° NE 06:00:26 21° E 06:03:17 10° SE visible
15 Dec 7.5 18:08:19 10° S 18:11:58 52° W 18:15:39 10° NNW visible
16 Dec 10.1 05:35:16 10° ENE 05:36:39 12° E 05:38:00 10° ESE visible
16 Dec 6.5 17:44:39 10° SSE 17:48:23 79° ENE 17:52:10 10° N visible
17 Dec 6.8 06:43:15 10° NNE 06:46:58 78° ESE 06:50:36 10° S visible
17 Dec 7.0 17:21:22 10° SE 17:24:53 41° ENE 17:28:27 10° N visible
17 Dec 9.8 18:56:18 10° SW 18:58:35 16° W 19:00:54 10° NW visible
18 Dec 8.2 06:19:51 10° NNE 06:23:21 39° E 06:26:45 10° SSE visible
18 Dec 7.8 16:58:29 10° ESE 17:01:28 23° ENE 17:04:28 10° NNE visible
18 Dec 8.8 18:31:36 10° SSW 18:34:51 28° W 18:38:08 10° NW visible
19 Dec 9.4 05:56:47 10° NE 05:59:38 21° E 06:02:26 10° SE visible
19 Dec 7.5 18:07:31 10° S 18:11:11 53° W 18:14:53 10° NNW visible
20 Dec 10.1 05:34:37 10° ENE 05:35:50 11° E 05:37:03 10° ESE visible
20 Dec 6.5 17:43:51 10° SSE 17:47:35 78° ENE 17:51:23 10° N visible
21 Dec 6.8 06:42:28 10° NNE 06:46:09 77° ESE 06:49:44 10° S visible
21 Dec 7.1 17:20:34 10° SE 17:24:05 40° ENE 17:27:39 10° N visible
21 Dec 9.7 18:55:26 10° SW 18:57:47 16° W 19:00:08 10° NW visible
22 Dec 8.2 06:19:04 10° NNE 06:22:31 38° E 06:25:52 10° SSE visible
22 Dec 7.8 16:57:40 10° ESE 17:00:39 23° ENE 17:03:38 10° NNE visible
22 Dec 8.8 18:30:45 10° SSW 18:34:02 28° W 18:37:20 10° NW visible
23 Dec 9.5 05:56:00 10° NE 05:58:47 20° E 06:01:31 10° SE visible
23 Dec 7.4 18:06:40 10° S 18:10:21 54° W 18:14:04 10° NNW visible
24 Dec 10.1 05:33:56 10° ENE 05:34:58 11° E 05:35:59 10° ESE visible
24 Dec 6.5 17:43:00 10° SSE 17:46:45 77° ENE 17:50:32 10° N visible
